Tracking 31027 objects as of 19-Jul-2025
HD Live streaming from Space Station
objects crossing your sky now

STARLINK-4674

Track STARLINK-4674 now!
10-day predictions
STARLINK-4674 is classified as:


NORAD ID: 53591
Int'l Code: 2022-104D
Perigee: 546.1 km
Apogee: 547.7 km
Inclination: 53.2 °
Period: 95.4 minutes
Semi major axis: 6917 km
RCS: Unknown
Launch date: August 28, 2022
Source: United States (US)
Launch site: AIR FORCE EASTERN TEST RANGE (AFETR)
Your satellite tracking list
FENGYUN 1C DEB
Track 1 satellite(s)




NASA's NSSDC Master Catalog

Two Line Element Set (TLE):
1 53591U 22104D   25199.73775263 -.00000313  00000-0 -15986-5 0  9991
2 53591  53.2161 214.5443 0001193  76.5711 283.5414 15.08835636159600
Source of the keplerian elements: AFSPC